Regional Weather Roundup
Issued by NWS

Home | Current Version | Previous Version | Text Only | Print | Product List | Glossary Off
Versions: 1 2 3 4 5 6 7 8 9 10 11 12 13 14 15 16 17 18 19 20 21 22 23 24 25 26 27 28 29 30 31 32 33 34 35 36 37 38 39 40 41 42 43 44 45 46 47 48 49 50

000
ASUS44 KMEG 270700
RWRTN
TENNESSEE HOURLY STATE WEATHER ROUNDUP
NATIONAL WEATHER SERVICE MEMPHIS TN
100 AM CST THU NOV 27 2014

TNZ002-004-019-021-049-052-054-088>092-270800-
WEST TENNESSEE

CITY           SKY/WX    TMP DP  RH WIND       PRES   REMARKS
MEMPHIS INTL   PTCLDY    42  27  55 NW15G22   30.23R
NWS MEMPHIS      N/A     40 N/A N/A MISG        N/A
JACKSON        CLOUDY    39  34  82 W6        30.18R WCI  35
DYERSBURG      CLOUDY    41  25  52 NW10      30.21R
UNION CITY     CLOUDY    37  34  87 NW12      30.17R WCI  30
PARIS          CLOUDY    36  34  93 NW8       30.15R WCI  29
LEXINGTON      PTCLDY    37  32  81 NW8       30.14R WCI  31
SAVANNAH       PTCLDY    28  28 100 SW3       30.17R
$$

TNZ008-025-027-028-033-062-065-066-270800-
NORTH MIDDLE TENNESSEE

CITY           SKY/WX    TMP DP  RH WIND       PRES   REMARKS
NASHVILLE      CLOUDY    40  33  76 W5        30.10R
CLARKSVILLE    CLOUDY    38  34  85 W9        30.10R WCI  31
CROSSVILLE     MOCLDY    37  32  82 W14G23    30.00S WCI  28
$$

TNZ061-075-076-078-094-096-097-270800-
SOUTH MIDDLE TENNESSEE

CITY           SKY/WX    TMP DP  RH WIND       PRES   REMARKS
WINCHESTER     CLOUDY    37  32  81 W6        30.11R WCI  33
SHELBYVILLE    CLOUDY    39  36  87 W10       30.11S WCI  32
$$

TNZ017-018-042-046-047-270800-
NORTHEAST TENNESSEE

CITY           SKY/WX    TMP DP  RH WIND       PRES   REMARKS
TRI CITIES     LGT RAIN  38  33  82 CALM      29.98F
ELIZABETHTON   CLOUDY    34  34 100 CALM      29.97F
$$

TNZ012-013-036-069-073-074-270800-
CENTRAL EAST TENNESSEE

CITY           SKY/WX    TMP DP  RH WIND       PRES   REMARKS
KNOXVILLE      LGT RAIN  38  35  89 W7        30.02R WCI  33
OAK RIDGE      CLOUDY    39  37  92 S3        30.02S
GATLINBURG     CLOUDY    37  34  87 W10       30.01R WCI  30
$$

TNZ083-085-099-270800-
SOUTHEAST TENNESSEE

CITY           SKY/WX    TMP DP  RH WIND       PRES   REMARKS
CHATTANOOGA    MOCLDY    43  32  65 W8        30.09R
$$

SKY/WX REPORTED AS FAIR MEANS FEW OR NO CLOUDS BELOW
12 THOUSAND FEET.




USA.gov is the U.S. government's official web portal to all federal, state and local government web resources and services.